Wind_Speed
4 3 2 3 3 5 10 12 13 14 12 11 11 8 8 12 13 12 12 11 11 11 11 10 11 11 12 12 11 12 12 12 11 10 10 9 8 6 8 8 8 10 10 9 9 7 5 4 3 4 6 8 10 9 8 8 8 7 5 8 8 10
2 2 3 3 3 2 8 13 14 15 12 12 12 9 9 12 12 10 10 11 10 11 11 11 13 12 13 14 14 13 12 13 13 12 11 10 9 7 7 8 8 9 10 9 8 6 4 3 3 4 6 7 8 6 7 9 8 6 6 7 8 11
2 1 2 3 4 2 7 13 14 14 14 14 13 10 10 12 12 10 10 10 10 10 10 11 12 11 11 13 15 15 13 14 14 13 12 11 9 8 7 8 7 7 8 7 6 6 5 3 3 4 7 7 7 6 8 8 7 6 7 7 9 12
4 2 2 1 2 2 6 12 13 14 15 15 14 12 12 13 12 12 12 11 10 10 11 11 11 10 10 11 15 17 15 17 16 14 13 12 11 9 8 8 8 6 6 7 7 6 6 6 5 4 7 7 7 8 8 7 6 6 7 8 11 12
5 4 3 2 1 1 2 10 13 14 15 14 14 13 13 15 14 13 14 12 10 11 12 12 11 11 11 10 14 18 20 19 18 16 14 12 12 11 10 10 9 9 8 8 8 8 8 7 7 6 7 7 8 9 8 7 7 6 7 9 12 13
6 5 4 4 1 1 0 7 13 14 14 14 14 14 15 16 16 16 15 12 11 13 13 11 12 13 12 11 12 17 21 19 18 17 14 13 13 12 12 11 11 11 10 10 10 9 9 8 8 8 8 8 8 9 8 7 8 8 7 9 12 13
6 5 3 3 2 1 1 4 11 14 15 15 15 15 16 17 17 17 16 15 14 13 13 12 13 14 12 12 13 16 19 18 18 16 15 16 14 12 13 11 11 12 11 10 10 11 11 9 9 9 8 8 8 9 9 8 8 8 7 7 10 13
4 4 2 0 1 1 1 1 5 10 13 15 16 15 15 17 17 17 17 17 15 13 13 13 15 15 13 13 14 17 18 18 19 16 15 16 14 12 13 11 10 11 10 10 11 11 11 11 10 10 10 10 9 10 10 9 8 8 7 6 9 12
4 3 2 1 1 2 3 3 2 3 7 10 14 15 15 16 16 17 18 18 17 16 15 15 16 17 15 15 15 18 19 20 19 16 15 15 14 14 12 12 10 9 10 10 10 10 11 12 12 11 11 11 10 11 11 10 9 9 8 6 7 11
5 3 2 1 2 3 4 4 3 3 2 4 8 12 13 15 17 18 19 19 20 18 18 18 17 16 17 16 16 18 20 20 19 18 17 14 15 16 13 11 10 9 10 11 10 10 10 12 13 13 12 12 11 11 11 10 10 9 8 8 7 10
5 4 4 3 1 2 4 5 6 5 4 4 5 6 7 10 14 19 21 21 21 20 19 21 19 16 17 16 16 18 19 19 19 19 17 13 15 16 13 12 11 11 12 12 12 12 11 11 13 13 13 13 12 12 12 11 11 10 9 9 7 9
6 5 5 4 2 0 2 4 6 7 8 7 7 7 8 8 8 13 19 20 20 21 21 22 21 17 17 18 18 20 20 19 19 19 16 14 14 15 15 15 13 13 13 13 14 15 14 12 13 13 14 14 14 13 13 12 12 11 10 10 9 8
9 8 7 5 4 3 2 2 4 6 8 9 9 10 10 10 9 9 14 18 19 20 21 21 22 20 18 18 20 21 22 21 19 19 18 16 15 15 16 17 15 14 15 16 17 19 17 14 14 14 14 14 15 14 13 13 13 12 12 11 10 9
12 11 11 10 9 8 6 5 5 5 7 8 9 10 11 11 11 10 12 16 17 19 21 21 22 22 21 20 19 21 21 20 19 19 19 18 17 18 18 17 17 16 17 18 18 20 19 16 15 14 15 15 16 16 15 14 14 13 13 12 11 10
15 15 15 15 15 13 12 10 9 8 7 7 9 10 11 10 10 11 12 15 15 16 19 22 24 23 23 23 22 23 22 21 21 19 20 21 18 19 21 20 19 17 17 18 16 18 19 16 15 14 15 16 16 16 16 15 15 14 14 13 12 12
15 16 16 17 17 16 15 14 12 11 9 8 8 10 11 10 9 9 10 12 14 15 16 20 25 25 23 24 25 26 25 24 24 20 20 22 20 18 19 21 21 19 18 17 14 15 17 16 15 15 15 16 16 16 16 16 16 15 14 14 13 13
13 14 15 16 17 17 17 16 15 14 12 10 8 9 10 10 9 9 9 9 11 15 16 18 22 26 26 25 26 27 26 26 27 25 23 21 21 20 18 18 21 23 22 19 13 12 14 14 15 15 15 17 17 17 17 16 17 15 15 15 15 14
8 9 11 12 14 16 16 17 18 17 15 12 10 9 9 10 10 9 9 9 9 11 16 18 19 23 27 28 28 27 27 29 29 30 30 26 24 26 25 21 20 22 23 21 15 12 13 13 13 13 15 17 17 17 17 17 17 16 16 16 15 15
3 4 6 8 11 14 15 17 18 20 20 16 12 10 10 10 10 10 10 10 10 10 13 17 19 21 24 28 31 30 27 30 30 30 31 31 30 30 31 29 23 22 23 21 16 13 13 13 12 13 14 16 17 17 17 17 18 17 17 17 16 16
3 3 5 6 8 11 13 14 16 20 22 20 15 11 10 10 10 10 10 10 11 11 12 15 18 21 22 25 29 31 32 34 33 30 29 31 32 32 33 32 30 27 26 24 18 15 14 14 13 13 14 14 15 17 17 18 19 18 17 18 18 17
5 5 5 6 7 8 10 13 16 18 21 21 18 12 9 10 10 9 9 10 10 12 13 14 16 19 21 23 25 28 33 36 35 34 33 32 32 32 33 33 33 32 31 28 20 16 16 15 13 13 14 14 15 15 17 19 18 18 18 19 19 18
6 5 5 5 6 8 10 13 15 18 21 22 18 13 10 9 10 10 10 10 11 11 12 14 15 17 19 21 22 24 27 30 30 32 35 36 34 32 33 35 35 33 32 32 24 18 18 17 16 16 16 14 15 15 16 19 19 19 21 21 20 19
8 6 6 5 5 7 10 12 14 17 20 21 18 13 10 10 10 10 8 8 10 11 13 14 15 17 17 19 20 21 22 24 26 28 33 36 35 32 31 31 33 32 31 34 31 23 20 20 18 16 16 15 15 16 17 19 21 22 23 22 21 20
9 8 7 6 5 7 10 13 15 18 20 22 21 14 9 8 8 7 6 5 6 8 11 13 14 16 17 19 20 20 20 21 22 25 29 33 34 33 31 27 27 29 32 36 36 28 23 24 22 18 17 16 15 16 17 19 22 24 24 24 23 22
11 10 9 7 6 7 10 13 16 19 20 23 22 16 9 7 7 6 5 5 6 6 7 10 13 14 15 17 19 20 20 20 20 20 22 28 31 32 34 33 30 30 32 37 37 29 23 25 27 23 20 17 15 16 16 16 17 19 22 24 24 23
12 12 10 8 6 7 8 10 13 15 17 20 19 16 12 10 8 7 6 5 6 6 7 8 11 13 14 16 17 19 20 21 20 18 19 22 25 27 31 35 35 32 32 36 36 30 25 27 28 26 24 21 17 14 12 13 14 14 16 19 21 23
14 13 12 9 8 7 8 9 11 12 14 17 18 17 15 13 10 8 7 7 6 6 6 7 9 10 12 13 14 17 18 20 21 20 20 19 20 25 27 28 30 31 31 35 38 35 30 28 27 28 28 26 22 17 13 12 14 13 13 16 19 21
16 15 14 12 10 9 8 8 9 11 12 14 16 17 17 15 13 10 8 8 8 7 7 7 7 9 10 11 12 13 15 18 20 21 22 20 18 22 26 25 27 31 33 34 38 39 35 30 27 28 29 28 26 23 19 16 15 14 14 15 16 19
18 17 16 14 11 10 9 8 8 9 10 11 13 15 16 16 15 13 10 9 9 10 10 8 7 8 9 9 10 11 12 15 18 20 23 24 22 21 23 25 27 30 32 35 36 38 38 34 29 28 29 29 28 26 25 22 19 18 18 17 17 17
19 19 18 15 13 12 11 9 7 8 8 9 10 12 14 15 15 14 13 11 10 10 10 10 10 9 9 9 10 11 11 12 15 19 22 25 26 25 24 24 27 28 30 33 36 37 39 38 34 32 31 30 30 28 27 26 25 22 22 21 19 17
21 21 19 17 15 13 12 10 8 8 8 8 8 9 11 13 15 15 15 15 13 11 10 11 11 11 10 10 11 11 11 12 13 15 20 25 28 29 27 25 25 29 31 32 36 38 40 42 41 40 39 35 34 33 29 28 29 26 24 23 21 18
22 22 21 19 17 15 14 12 10 9 9 8 8 8 8 10 13 15 16 16 16 15 15 14 12 11 10 10 12 12 11 12 13 13 17 23 27 30 30 28 26 28 31 33 36 38 40 43 43 43 44 42 40 38 34 30 29 28 26 24 22 21
23 23 22 20 18 17 16 14 12 12 11 10 9 8 8 9 11 13 15 16 18 18 19 18 17 15 13 12 14 15 13 12 12 12 14 18 25 29 30 31 30 29 31 33 34 35 39 44 45 43 43 44 44 43 41 36 30 29 28 25 24 23
23 23 22 21 20 18 17 16 15 14 13 12 11 10 10 10 10 12 14 16 18 19 21 22 23 23 20 19 18 18 17 16 15 14 14 15 19 26 31 33 33 32 32 33 33 34 37 41 43 42 42 43 45 46 47 44 37 33 31 28 27 25
22 23 22 21 21 20 19 17 16 15 14 13 12 12 12 12 12 12 14 16 18 20 22 24 25 27 26 25 23 21 20 19 19 18 18 17 17 20 26 31 35 36 36 34 33 34 36 38 41 43 45 45 46 47 49 49 45 40 35 30 28 28
21 22 21 22 22 21 20 19 17 16 15 14 13 13 14 14 14 15 15 16 18 20 23 25 27 29 29 29 27 24 22 21 21 20 20 20 17 16 19 25 31 37 41 39 36 34 34 36 39 41 45 46 48 49 48 48 49 46 43 36 31 30
19 20 21 22 23 22 21 19 18 17 16 15 15 15 16 17 18 18 18 18 20 21 23 25 28 30 31 30 28 26 25 23 22 21 20 19 18 17 17 19 23 28 37 42 43 39 34 34 38 41 45 47 50 51 48 48 49 48 49 46 38 34
Wind_Direction
43 19 43 84 133 198 208 213 213 208 207 198 198 203 190 182 180 187 192 190 191 192 186 191 196 193 195 195 195 196 190 182 184 192 184 175 171 153 134 126 137 152 157 155 154 157 158 149 157 191 186 200 202 178 170 184 189 172 181 200 189 205
45 14 360 33 65 171 198 202 207 203 197 193 196 197 186 181 182 189 194 185 186 192 185 193 198 194 198 196 195 199 199 191 186 192 187 179 180 166 148 133 123 129 141 144 139 138 142 138 142 153 161 188 187 172 199 196 183 184 195 194 196 208
13 19 357 13 38 90 187 198 204 198 189 189 193 187 179 186 188 190 196 187 188 196 190 199 203 197 201 198 193 195 201 197 190 192 188 184 187 179 165 151 136 128 133 140 140 145 155 173 175 151 158 174 172 187 215 199 181 192 200 201 209 209
341 353 10 20 22 58 179 200 204 195 189 190 192 186 179 191 196 195 200 196 197 198 194 202 202 199 204 201 194 193 198 198 193 192 188 188 192 191 180 168 163 157 152 154 164 171 167 182 196 178 175 176 178 203 215 195 184 194 203 209 214 211
323 332 351 21 359 19 182 200 201 197 196 191 188 187 184 193 200 201 204 204 204 200 201 208 205 204 205 205 199 194 197 197 195 191 186 191 197 197 190 187 186 180 182 179 181 187 178 185 197 193 194 192 193 206 207 195 192 193 204 215 217 212
307 311 336 9 31 15 89 191 197 202 201 196 191 191 190 195 203 204 202 203 208 208 206 207 209 211 204 206 208 196 194 194 195 191 186 191 197 197 191 195 197 188 193 194 195 203 195 190 197 201 203 204 207 205 200 200 204 198 203 219 219 212
308 306 320 10 34 34 14 184 200 204 201 202 199 198 196 198 206 206 203 203 207 213 212 207 212 214 201 204 207 192 189 190 194 194 190 192 197 198 191 196 201 195 201 202 206 220 219 210 205 208 209 211 213 209 202 202 212 209 206 218 218 211
329 316 302 332 34 303 316 234 208 206 205 208 202 200 202 203 208 208 207 208 207 212 216 215 217 216 202 199 203 190 187 194 197 196 198 197 199 201 194 197 203 202 207 209 213 222 225 222 216 214 214 217 216 213 210 204 212 215 210 219 222 214
18 351 322 240 198 229 273 295 284 225 219 215 205 204 206 205 210 212 213 213 211 214 218 219 220 224 212 199 203 194 190 199 199 199 208 206 203 206 203 205 206 206 210 213 220 223 223 224 224 221 217 221 219 215 214 209 212 212 209 216 231 231
44 42 41 69 207 215 240 262 278 282 273 243 221 212 208 206 209 213 215 216 215 216 222 222 221 227 219 202 205 205 200 204 204 209 216 211 211 212 210 213 212 210 214 219 222 224 227 226 227 225 221 223 220 217 217 215 216 213 213 213 221 243
61 66 74 80 123 212 224 244 254 262 263 267 265 248 236 226 216 214 215 217 217 218 223 225 222 223 221 211 212 218 216 213 210 216 219 213 220 222 214 213 216 216 218 222 223 226 230 227 227 225 222 221 218 217 217 216 219 216 219 219 217 238
70 71 71 72 65 43 235 244 253 264 265 261 264 264 268 270 251 227 218 219 221 219 220 224 223 221 224 224 221 221 222 223 218 218 222 219 225 231 224 218 220 224 224 224 226 231 232 229 226 224 222 220 216 216 216 215 216 216 217 219 219 227
74 72 67 61 52 30 355 298 271 270 274 271 266 261 260 263 267 253 231 228 229 227 223 223 224 223 224 229 231 227 223 226 225 220 224 226 227 231 231 230 232 234 236 237 238 240 240 236 230 223 221 218 215 215 215 214 214 216 216 216 220 223
77 71 67 61 54 43 25 5 343 311 295 287 278 271 266 260 256 253 246 240 238 237 233 229 227 226 225 226 233 234 226 225 227 223 227 232 231 231 230 233 237 237 242 244 244 249 250 243 237 226 220 217 215 214 212 213 214 215 217 216 219 222
75 69 65 59 54 48 40 28 15 359 339 318 299 287 278 274 264 254 249 246 242 240 239 236 233 230 227 225 227 233 231 229 229 225 230 236 236 236 234 234 234 230 239 246 244 251 256 248 238 228 220 217 215 214 212 212 215 216 218 218 218 221
74 67 62 55 51 47 41 33 22 10 0 349 326 305 291 285 279 267 258 250 244 239 236 236 236 234 231 229 230 235 236 233 231 227 231 236 237 238 239 240 238 228 230 243 241 244 254 250 240 231 221 215 213 214 213 213 216 216 218 220 220 224
75 65 57 49 43 39 37 34 28 16 1 352 341 322 304 292 282 273 267 259 248 240 234 231 234 236 234 232 233 236 236 233 231 230 230 235 238 239 238 239 241 237 233 239 237 233 246 247 240 233 221 216 214 213 213 213 217 217 218 222 222 225
72 60 48 41 35 28 25 24 24 20 9 355 340 330 317 300 287 275 265 260 253 245 240 236 234 236 234 233 232 234 235 234 233 233 232 233 237 241 241 239 239 239 236 236 234 228 237 239 234 228 218 217 214 213 215 214 217 219 219 222 224 226
35 34 26 22 23 20 16 14 13 12 9 2 343 325 316 307 293 278 267 260 254 248 245 240 238 239 237 235 235 236 236 235 234 236 237 235 237 240 242 241 238 236 236 236 233 229 234 233 225 218 215 217 214 215 218 216 218 220 220 222 225 226
299 327 340 356 12 14 10 6 6 5 3 359 349 329 309 303 296 279 266 262 255 247 245 241 239 240 241 239 239 239 240 238 235 236 238 237 238 240 240 241 239 235 236 240 236 229 233 230 219 212 211 214 214 217 220 221 221 221 222 225 227 228
279 304 323 346 5 7 3 0 1 2 359 354 347 335 314 298 293 283 265 254 252 248 243 241 240 241 241 241 241 243 244 244 241 239 239 240 241 241 241 241 240 236 236 240 237 226 227 224 212 206 206 209 213 217 220 224 226 225 227 230 230 230
268 289 308 332 348 349 355 360 358 358 357 352 345 332 313 294 284 282 272 249 240 243 243 242 242 242 243 243 244 247 249 249 246 242 239 240 241 239 237 235 234 233 234 236 232 222 221 219 210 205 202 203 211 218 222 226 229 230 231 233 232 229
260 277 290 308 336 343 347 351 352 355 355 353 348 330 305 293 280 274 275 256 238 236 238 242 244 244 246 247 247 249 251 252 250 247 242 240 236 232 235 235 232 232 234 235 232 223 221 221 216 208 202 201 207 216 223 226 229 230 229 231 231 228
256 268 280 289 310 327 333 338 343 348 352 354 353 345 325 309 295 283 283 278 263 246 237 239 243 245 246 248 250 250 251 253 252 251 248 246 240 236 238 239 239 240 236 234 235 230 223 223 221 211 206 208 207 211 222 224 226 230 229 227 229 228
256 263 270 277 291 312 329 342 349 353 356 358 358 357 351 326 307 305 303 290 288 280 258 247 244 244 246 247 249 251 251 252 252 251 251 251 249 245 242 241 248 251 239 232 234 229 219 223 224 216 213 216 209 211 225 225 221 229 230 227 229 228
254 260 265 265 273 298 321 339 350 356 358 359 360 359 353 335 316 307 303 295 292 290 280 269 255 249 250 248 247 249 250 251 251 251 250 251 250 246 242 243 246 247 238 232 231 225 217 223 226 221 219 222 220 221 231 225 217 225 228 226 229 229
253 258 261 258 260 280 303 323 337 346 353 358 359 358 353 349 337 313 300 299 298 293 285 279 270 261 259 257 253 249 249 249 249 249 249 248 247 243 239 239 240 238 235 230 227 224 219 221 226 224 221 222 229 235 237 230 224 227 230 229 231 229
251 256 258 255 254 265 285 307 328 341 351 357 359 357 353 351 347 332 315 304 299 296 290 282 275 271 268 266 264 258 252 248 247 247 247 244 244 244 239 236 237 237 235 229 226 226 221 217 222 227 225 223 228 235 237 238 235 234 237 238 235 231
251 254 254 253 251 256 271 289 313 333 346 354 359 359 354 349 345 340 333 321 310 305 299 289 279 274 269 267 267 265 261 255 247 243 243 242 239 238 238 237 236 236 235 232 230 230 227 223 222 228 230 226 228 235 238 240 240 238 242 244 241 234
252 253 252 250 246 249 261 275 295 316 332 346 357 359 355 351 347 342 340 336 326 314 302 291 284 278 270 267 265 264 264 262 255 245 241 240 236 232 232 235 236 235 236 235 232 230 233 235 233 233 234 231 230 234 237 239 238 237 238 241 245 240
253 253 252 249 245 246 255 265 279 297 312 328 343 352 352 352 350 346 347 346 339 328 315 302 292 284 277 272 266 263 263 263 262 254 244 240 237 234 231 231 234 235 236 238 236 232 232 236 238 236 234 233 234 235 236 237 236 234 234 235 239 239
254 253 252 249 246 246 253 262 271 283 297 308 322 335 341 344 345 344 346 346 343 339 333 323 307 292 284 280 273 266 262 262 262 261 252 243 239 239 236 232 232 233 234 237 239 238 235 234 236 237 234 233 236 239 239 239 238 236 235 235 235 234
253 252 250 247 245 245 251 260 268 278 289 296 306 316 323 331 334 337 338 337 338 338 336 331 321 309 297 289 286 278 268 261 257 259 259 249 242 240 240 236 232 232 235 236 237 239 237 235 236 236 233 234 237 239 240 240 240 237 235 235 234 233
250 251 249 244 243 243 248 257 264 274 283 290 299 306 311 319 322 326 328 328 331 331 330 330 326 321 312 301 296 289 279 270 260 255 257 258 249 242 241 239 235 233 234 236 236 237 237 237 237 233 230 233 237 238 241 241 239 237 236 233 232 231
249 250 248 242 241 242 247 254 261 270 278 284 294 302 307 311 312 315 318 320 324 324 324 324 323 321 316 309 301 292 286 278 268 260 252 253 255 248 243 241 239 236 235 235 236 238 240 239 236 231 228 232 235 236 240 241 239 238 236 232 233 232
250 248 245 239 239 240 245 252 258 267 275 281 290 299 304 307 308 310 311 313 316 318 319 319 317 317 314 309 302 294 290 282 275 268 254 247 251 254 249 244 242 240 238 236 235 237 240 239 236 233 231 232 235 236 237 240 241 242 239 233 230 233
248 244 241 236 237 239 244 251 257 265 274 281 290 297 301 305 307 308 309 310 311 312 313 313 313 311 309 305 299 293 290 284 278 272 262 253 249 250 251 249 246 242 240 239 237 236 237 238 238 237 235 234 235 235 234 236 239 242 244 240 235 234
Height
1542 1542 1542 1543 1544 1544 1544 1544 1546 1547 1548 1549 1551 1552 1552 1553 1554 1554 1555 1556 1556 1557 1557 1558 1559 1559 1559 1560 1561 1562 1563 1564 1565 1566 1567 1568 1569 1569 1569 1569 1570 1571 1571 1572 1572 1573 1574 1575 1575 1576 1577 1578 1579 1580 1581 1582 1582 1583 1583 1583 1583 1582
1542 1542 1542 1542 1543 1543 1543 1544 1546 1547 1548 1549 1550 1551 1552 1553 1554 1554 1555 1555 1556 1556 1557 1558 1558 1559 1559 1560 1561 1562 1563 1564 1565 1566 1567 1568 1569 1569 1569 1570 1570 1571 1572 1572 1573 1574 1575 1575 1576 1576 1577 1578 1579 1581 1582 1581 1582 1583 1583 1583 1583 1582
1542 1542 1543 1542 1543 1543 1543 1544 1545 1546 1548 1549 1550 1551 1552 1553 1554 1554 1555 1555 1556 1556 1557 1557 1558 1559 1559 1559 1560 1561 1563 1564 1565 1566 1567 1568 1569 1569 1569 1570 1570 1571 1571 1572 1573 1575 1576 1577 1576 1576 1577 1578 1580 1582 1582 1581 1582 1583 1583 1584 1583 1582
1542 1542 1543 1543 1543 1543 1543 1544 1544 1546 1547 1547 1549 1550 1551 1552 1553 1554 1555 1555 1555 1556 1557 1557 1558 1559 1559 1559 1560 1561 1562 1563 1565 1566 1567 1568 1569 1569 1569 1569 1570 1571 1571 1573 1575 1576 1578 1578 1578 1577 1578 1578 1580 1582 1582 1582 1583 1584 1584 1583 1582 1582
1541 1542 1542 1543 1543 1543 1543 1543 1544 1545 1546 1547 1548 1549 1550 1551 1552 1553 1554 1555 1555 1556 1557 1557 1557 1558 1559 1559 1559 1560 1561 1562 1564 1566 1567 1568 1568 1569 1569 1569 1570 1571 1572 1573 1575 1576 1577 1579 1579 1578 1578 1579 1581 1582 1581 1582 1583 1584 1584 1583 1582 1582
1540 1541 1542 1542 1543 1543 1542 1543 1543 1544 1545 1546 1547 1548 1549 1550 1551 1552 1553 1554 1555 1555 1556 1557 1557 1557 1558 1559 1559 1559 1560 1562 1564 1565 1567 1568 1568 1568 1569 1569 1570 1571 1572 1573 1574 1575 1576 1578 1579 1579 1579 1580 1580 1581 1581 1582 1583 1583 1583 1582 1581 1581
1539 1540 1541 1542 1542 1542 1542 1542 1543 1543 1544 1545 1546 1547 1548 1549 1550 1551 1552 1553 1554 1555 1556 1557 1557 1557 1558 1558 1559 1559 1561 1562 1564 1565 1566 1567 1568 1568 1569 1570 1570 1570 1572 1572 1573 1574 1575 1577 1578 1579 1580 1580 1580 1581 1581 1582 1582 1582 1583 1582 1581 1581
1539 1539 1540 1541 1542 1542 1542 1542 1542 1543 1543 1543 1545 1546 1547 1548 1549 1550 1551 1552 1553 1554 1555 1556 1556 1556 1557 1558 1559 1560 1561 1562 1563 1565 1566 1566 1567 1567 1568 1569 1569 1570 1571 1572 1573 1573 1574 1576 1577 1578 1579 1580 1580 1580 1580 1581 1582 1582 1582 1582 1581 1580
1538 1538 1539 1540 1541 1541 1541 1542 1542 1542 1542 1543 1544 1545 1546 1547 1548 1549 1550 1551 1551 1552 1553 1555 1555 1555 1556 1557 1558 1559 1561 1562 1563 1564 1565 1565 1566 1566 1567 1568 1568 1569 1570 1571 1572 1573 1574 1575 1576 1577 1578 1579 1579 1580 1580 1580 1581 1581 1582 1583 1582 1580
1538 1538 1538 1539 1540 1540 1541 1541 1541 1542 1542 1542 1543 1543 1545 1546 1547 1548 1549 1549 1550 1550 1552 1553 1554 1554 1555 1556 1558 1559 1560 1561 1562 1563 1564 1564 1565 1565 1566 1566 1567 1569 1570 1570 1571 1572 1573 1574 1575 1576 1577 1578 1579 1579 1579 1580 1580 1581 1581 1582 1582 1580
1537 1537 1538 1538 1538 1539 1540 1540 1540 1541 1541 1542 1542 1542 1544 1544 1545 1546 1547 1547 1548 1549 1550 1551 1552 1553 1554 1555 1556 1558 1559 1560 1561 1562 1562 1563 1564 1564 1565 1566 1567 1568 1569 1570 1571 1571 1571 1572 1574 1575 1576 1577 1578 1578 1579 1579 1580 1581 1581 1582 1582 1581
1537 1537 1537 1537 1538 1538 1539 1539 1539 1540 1540 1541 1541 1541 1542 1543 1544 1545 1545 1546 1547 1548 1549 1550 1551 1552 1553 1554 1555 1556 1558 1559 1560 1561 1562 1562 1563 1563 1564 1565 1566 1567 1567 1568 1569 1569 1570 1571 1572 1574 1575 1576 1577 1577 1578 1578 1579 1580 1581 1581 1582 1582
1538 1537 1537 1537 1537 1538 1538 1538 1539 1539 1539 1540 1540 1541 1541 1542 1543 1544 1545 1545 1546 1547 1548 1549 1550 1550 1551 1552 1553 1554 1556 1558 1559 1560 1561 1561 1562 1562 1563 1563 1564 1565 1566 1566 1567 1567 1568 1569 1570 1572 1573 1574 1575 1576 1577 1578 1579 1579 1580 1581 1581 1581
1538 1538 1538 1538 1538 1538 1538 1538 1538 1538 1538 1539 1539 1539 1540 1540 1541 1542 1543 1544 1545 1546 1546 1547 1548 1548 1550 1550 1551 1553 1555 1556 1558 1559 1560 1560 1561 1562 1562 1562 1563 1564 1564 1565 1566 1566 1567 1568 1569 1570 1572 1573 1574 1574 1575 1577 1578 1578 1579 1579 1580 1580
1538 1538 1538 1538 1538 1538 1538 1538 1538 1538 1538 1538 1538 1538 1538 1539 1540 1541 1541 1542 1543 1544 1544 1545 1546 1547 1548 1549 1550 1551 1553 1554 1556 1558 1558 1559 1560 1561 1561 1562 1563 1564 1564 1564 1565 1565 1565 1566 1567 1568 1570 1571 1572 1573 1574 1575 1576 1577 1577 1578 1578 1579
1538 1538 1538 1538 1538 1538 1538 1538 1537 1537 1537 1537 1537 1537 1537 1537 1538 1539 1539 1540 1541 1542 1542 1543 1543 1545 1546 1547 1548 1549 1551 1553 1554 1556 1557 1557 1559 1560 1560 1561 1561 1563 1563 1563 1564 1564 1564 1565 1566 1566 1568 1569 1570 1571 1572 1573 1574 1575 1576 1576 1577 1577
1538 1538 1538 1538 1538 1538 1538 1538 1538 1537 1536 1536 1536 1536 1536 1536 1536 1537 1538 1538 1538 1539 1540 1541 1541 1542 1544 1545 1546 1547 1549 1550 1552 1553 1555 1556 1557 1558 1559 1560 1560 1561 1562 1562 1563 1564 1563 1563 1564 1565 1566 1567 1568 1570 1570 1572 1573 1574 1575 1575 1575 1575
1538 1538 1538 1538 1538 1537 1537 1538 1537 1537 1537 1536 1535 1535 1534 1534 1535 1535 1536 1536 1536 1536 1537 1538 1539 1540 1541 1543 1544 1545 1546 1547 1549 1550 1552 1554 1555 1556 1557 1558 1559 1560 1561 1561 1563 1564 1563 1562 1563 1564 1564 1565 1566 1568 1569 1570 1571 1572 1573 1573 1573 1573
1538 1538 1538 1538 1538 1537 1537 1537 1537 1537 1536 1536 1535 1534 1534 1533 1533 1534 1534 1535 1535 1535 1536 1536 1538 1538 1539 1540 1541 1543 1544 1545 1546 1548 1549 1551 1552 1553 1554 1556 1558 1559 1559 1560 1561 1563 1563 1562 1562 1563 1563 1564 1565 1566 1567 1568 1569 1570 1571 1571 1572 1571
1537 1537 1537 1537 1537 1538 1538 1538 1537 1537 1536 1535 1535 1534 1533 1532 1532 1532 1532 1533 1534 1535 1535 1535 1536 1537 1538 1539 1539 1541 1542 1542 1544 1546 1547 1548 1549 1550 1552 1553 1555 1557 1557 1558 1559 1561 1562 1561 1560 1562 1562 1563 1564 1565 1566 1567 1567 1568 1569 1569 1569 1569
1536 1536 1536 1536 1537 1537 1537 1537 1537 1537 1536 1535 1534 1533 1532 1532 1531 1531 1532 1532 1532 1533 1534 1534 1535 1535 1536 1537 1538 1539 1539 1540 1542 1544 1545 1545 1547 1548 1550 1550 1551 1553 1555 1556 1557 1559 1561 1560 1559 1560 1561 1561 1562 1563 1564 1565 1565 1566 1567 1567 1566 1566
1535 1535 1535 1535 1535 1536 1536 1536 1536 1535 1535 1534 1533 1532 1531 1531 1530 1530 1530 1531 1531 1531 1532 1532 1533 1533 1534 1535 1536 1537 1537 1538 1540 1541 1542 1542 1544 1546 1547 1547 1547 1549 1551 1553 1554 1556 1558 1559 1558 1558 1558 1560 1561 1561 1563 1563 1563 1564 1564 1564 1564 1564
1534 1534 1534 1534 1534 1534 1534 1534 1535 1534 1534 1533 1532 1531 1530 1529 1529 1529 1529 1529 1529 1530 1530 1530 1531 1531 1532 1532 1533 1534 1535 1535 1537 1538 1539 1539 1541 1542 1543 1543 1544 1546 1548 1549 1550 1553 1555 1556 1556 1557 1557 1557 1558 1559 1560 1560 1560 1561 1561 1561 1561 1562
1533 1533 1533 1533 1533 1533 1532 1532 1532 1532 1532 1532 1531 1529 1529 1528 1528 1527 1527 1528 1528 1528 1528 1528 1529 1529 1530 1530 1531 1532 1532 1533 1534 1535 1535 1536 1537 1539 1540 1540 1541 1543 1544 1545 1547 1549 1552 1554 1555 1555 1555 1555 1556 1556 1556 1556 1556 1556 1557 1558 1558 1559
1531 1532 1532 1532 1532 1531 1531 1531 1530 1530 1529 1529 1529 1528 1528 1528 1527 1527 1527 1527 1526 1526 1526 1526 1526 1527 1527 1528 1528 1529 1530 1530 1531 1532 1532 1532 1534 1536 1537 1537 1538 1539 1541 1541 1543 1546 1549 1550 1551 1552 1553 1553 1553 1553 1552 1553 1554 1554 1554 1555 1556 1556
1530 1530 1530 1530 1530 1530 1530 1530 1530 1530 1529 1529 1529 1528 1528 1527 1526 1526 1526 1525 1524 1524 1524 1524 1524 1524 1525 1525 1526 1526 1527 1528 1529 1529 1530 1530 1530 1531 1532 1533 1534 1535 1537 1538 1541 1544 1546 1547 1548 1548 1549 1551 1551 1550 1550 1551 1552 1552 1553 1553 1554 1554
1528 1528 1529 1529 1529 1529 1529 1529 1529 1529 1529 1528 1528 1527 1526 1526 1525 1525 1524 1524 1524 1523 1522 1522 1522 1522 1522 1523 1523 1524 1524 1525 1526 1526 1526 1527 1527 1528 1528 1529 1530 1532 1533 1535 1537 1540 1543 1545 1545 1545 1545 1547 1549 1548 1549 1549 1549 1550 1550 1551 1552 1553
1526 1526 1527 1527 1527 1528 1528 1528 1528 1528 1527 1527 1527 1526 1525 1524 1524 1523 1523 1523 1523 1522 1521 1521 1521 1521 1521 1521 1521 1521 1521 1522 1523 1523 1524 1524 1525 1525 1526 1527 1528 1529 1530 1531 1533 1536 1539 1542 1542 1541 1542 1544 1546 1547 1547 1547 1547 1548 1548 1548 1549 1550
1523 1524 1524 1525 1526 1526 1526 1526 1526 1526 1526 1525 1525 1525 1523 1523 1522 1522 1521 1521 1521 1521 1520 1520 1519 1519 1519 1519 1519 1519 1519 1519 1520 1520 1521 1521 1522 1523 1524 1525 1525 1526 1526 1527 1529 1532 1534 1537 1538 1538 1539 1541 1543 1544 1545 1545 1546 1546 1546 1545 1545 1547
1521 1521 1522 1523 1524 1524 1524 1524 1524 1524 1524 1524 1523 1523 1523 1522 1521 1520 1520 1520 1519 1519 1519 1518 1518 1517 1517 1517 1517 1517 1517 1517 1517 1517 1518 1518 1519 1520 1521 1521 1522 1523 1523 1524 1526 1527 1529 1531 1534 1535 1537 1538 1539 1541 1542 1542 1543 1543 1544 1544 1543 1543
1518 1519 1519 1520 1521 1521 1522 1522 1522 1522 1522 1522 1522 1522 1521 1521 1520 1519 1518 1518 1518 1518 1517 1517 1516 1515 1515 1514 1514 1514 1514 1515 1515 1515 1515 1515 1515 1516 1517 1518 1519 1519 1520 1521 1522 1523 1524 1526 1529 1531 1533 1534 1535 1537 1538 1538 1539 1540 1541 1542 1542 1542
1515 1516 1517 1518 1519 1519 1519 1519 1520 1520 1520 1520 1520 1520 1520 1519 1519 1518 1517 1516 1516 1516 1515 1515 1515 1514 1513 1513 1511 1511 1511 1512 1512 1512 1512 1512 1512 1513 1513 1514 1515 1516 1516 1517 1518 1519 1519 1521 1523 1525 1528 1530 1531 1532 1534 1535 1536 1538 1538 1539 1540 1540
1513 1513 1514 1515 1516 1516 1516 1517 1517 1517 1518 1518 1518 1518 1518 1517 1517 1516 1515 1515 1514 1514 1513 1513 1512 1512 1511 1510 1509 1509 1508 1508 1509 1509 1509 1509 1509 1509 1510 1510 1511 1512 1512 1513 1514 1515 1515 1517 1519 1520 1523 1527 1528 1528 1530 1532 1533 1535 1536 1537 1537 1538
1510 1510 1511 1512 1513 1514 1514 1514 1515 1515 1515 1515 1515 1515 1515 1515 1515 1514 1514 1513 1512 1511 1510 1510 1509 1509 1508 1507 1507 1506 1505 1505 1505 1505 1505 1505 1505 1506 1506 1507 1507 1508 1509 1509 1510 1511 1512 1513 1515 1517 1519 1522 1524 1525 1526 1528 1530 1531 1532 1533 1534 1535
1507 1508 1509 1510 1510 1511 1512 1512 1512 1512 1513 1513 1513 1513 1513 1513 1513 1512 1512 1511 1510 1509 1508 1507 1506 1505 1505 1504 1504 1503 1502 1502 1501 1501 1501 1501 1502 1502 1502 1503 1503 1504 1505 1506 1507 1507 1508 1510 1511 1513 1514 1517 1520 1521 1522 1523 1525 1527 1528 1530 1530 1532
1505 1505 1506 1507 1508 1509 1509 1510 1510 1510 1510 1510 1510 1510 1510 1510 1510 1510 1509 1508 1507 1506 1505 1504 1503 1502 1501 1500 1499 1499 1499 1498 1498 1497 1497 1497 1498 1498 1499 1499 1499 1500 1501 1502 1503 1504 1505 1506 1507 1509 1510 1512 1514 1516 1517 1519 1521 1523 1524 1525 1527 1528
1502 1502 1503 1504 1505 1506 1507 1507 1507 1507 1507 1507 1507 1507 1507 1507 1506 1506 1506 1505 1505 1504 1503 1501 1500 1498 1497 1496 1495 1495 1494 1494 1494 1494 1493 1493 1494 1495 1495 1495 1495 1496 1496 1498 1499 1500 1501 1502 1502 1504 1505 1507 1509 1510 1513 1516 1517 1518 1518 1520 1523 1525